FENGYUN 1C DEB

Satellite information

Favourite Embed

Satellite Type and Status

DEBRISIN ORBIT

Key statistics

Satellite FENGYUN 1C DEB at a glance.

Uptime

9715

Days in orbit

Revolutions

≈ 14.3

Per day

Orbit

SSO

Sun Synchronous Orbit

Inclination

99.0

Latest

Satellite identification and parameters

Extended collection of information and parameters for FENGYUN 1C DEB.

Object identification

Identified? True

Debris? True

Object name: FENGYUN 1C DEB

International designator: 1999-025BRE

Object number (NORAD): 31350

Object ID (CCSDS): 31350

Country: PEOPLES REPUBLIC OF CHINA (PRC)

Current information (Y/N): Y

RCS size: SMALL

Orbital parameters

Period: 100.36 minutes

Inclination: 98.9604 deg

SMA: 7153.767 km

Apoapsis: 823.383 km

Periapsis: 727.882 km

RAAN: 154.6193 deg

Eccentricy: 0.00667483

Argument of periapsis: 136.9079 deg

Mean anomaly: 223.7357 deg

Mean motion: 14.34830277 rev/day

Mean motion (dot): 0.00003049 rev/day2

B* drag term: 0.0010632143 1/REarth

Two-line elements (TLE)

Creation date: Dec. 9, 2025, 5:08 a.m.

Reference frame: TEME

Reference center: EARTH

Epoch: Dec. 8, 2025, 6:02 p.m. UTC

TLE line 0: 0 FENGYUN 1C DEB

TLE line 1: 1 31350U 99025BRE 25342.75143426 .00003049 00000-0 10632-2 0 9995

TLE line 2: 2 31350 98.9604 154.6193 0066748 136.9079 223.7357 14.34830277701966

Live tracking on map

Real-time ground track for satellite FENGYUN 1C DEB.

In-orbit conjunctions

A list of the most updated potential collisions computed for object FENGYUN 1C DEB.

Target Orbit TCA Probability of collision Miss distance Type
COSMOS 2298 DEB LEO 2025-11-11 22:49:54 0.0002864811 122.0 (m) DEBRIS
METEOR 2-10 LEO 2025-10-03 01:26:27 0.0002343091 206.0 (m) PAYLOAD
DMSP 5D-2 F13 DEB SSO 2025-03-23 16:12:42 0.000194566 65.0 (m) DEBRIS
CZ-6A DEB LEO 2024-12-26 18:49:19 0.0001906292 295.0 (m) DEBRIS
COSMOS 2251 DEB LEO 2024-11-10 13:52:41 0.0002646464 882.0 (m) DEBRIS

Associated space launch

Chinese polar orbiting meteorological satellite

FENGYUN 1C DEB was lifted into orbit during the mission ‘Long March 4B | Feng Yun 1C’, on board a Long March 4B space rocket.

The launch took place on May 10, 1999, 1:33 a.m. from Launch Complex 7.

For more information about the launch, click the button.

Launch to space Long March 4B | Feng Yun 1C
Long March 4B | Feng Yun 1C

Agency: N/A

Status: Launch Successful

Launch date: May 10, 1999, 1:33 a.m. UTC

Rocket: Long March 4B

Launch pad: Launch Complex 7

Location: Taiyuan Satellite Launch Center, People's Republic of China

...

Latest news about this satellite

There are no fresh news available about this satellite. Check back as we update our databases every day.


Newsletter sign-up

Weekly statistics, charts and insights to help you stay on top of the space industry.